Погода в Куэнке

Испания     40°04′11″N   2°08′15″W
темп.,
°C
ветер,
м/с
пор.,
м/с
влажн.,
%
обл.,
%
осадки,
мм/ч
давл.,
гПа
погр.,
м
16 апреля, пт
пт1623:00+7ю118652 0.1 101770
02:00+5ю129471 0.1 101860
05:00+6зюз018676 0.0 101763
08:00+7ссз237998 0.0 1016390
11:00+8сз237884 0.1 1016469
14:00+12сз564039 0.3 10142198
17:00+13ссз89269 0.0 10132770
20:00+10ссв57345 0.0 1014397
17 апреля, сб
сб1723:00+4ссв47430 0.0 1020169
02:00+1с22570 0.0 102139
05:000с33650 0.0 102158
08:00−1с37670 0.0 1022183
11:00+6с67460 0.0 1020925
14:00+11ссз79320 0.0 10171776
17:00+13ссз79295 0.0 10152392
20:00+11ссз583779 0.0 1016390
18 апреля, вс
вс1823:00+5с37570 0.0 1020150
02:00+3с511590 0.0 1021387
05:00+1с39730 0.0 1022239
08:000ссз24783 0.0 102389
11:00+8ссз58460 0.0 1021756
14:00+13сз66335 0.0 10191430
17:00+15зсз5628100 0.0 10171860
20:00+13зсз4741100 0.0 1018220
19 апреля, пн
пн1923:00+8зсз124661 0.0 102010
02:00+7ююв114787 0.0 102010
05:00+6ю114993 0.0 101910
08:00+7зсз0055100 0.0 101810
11:00+12зюз3546100 0.0 1017633
14:00+16з4536100 0.0 10151708
17:00+16з6635100 0.0 10122111
20:00+10з5672100 0.1 1014716
20 апреля, вт
вт2023:00+8зюз1486100 1.7 1015360
02:00+8зсз358879 2.1 1015403
05:00+7сз289015 0.0 1014492
08:00+6зсз229557 0.0 101447
11:00+11сз456740 0.1 10131033
14:00+14зсз665192 0.5 10111726
17:00+14зсз6751100 1.0 10101588
20:00+12з5860100 2.4 1010420